Location: Cedar Brake
(32.2526°N, 97.8459°W)
Time: 20:38:44
(UTC+00:00)

SPOT 5 - Pass Details

Date: 22 April 2026
Orbit: 618 x 802 km, 98.0° (Epoch: 21 May)

Event Time Altitude Azimuth Distance (km) Brightness Sun altitude
Exits shadow 02:49:09 11° 192° (SSW) 2,029 5.0 -21.0°
Maximum altitude 02:53:14 40° 260° (W) 976 3.9 -21.8°
Drops below altitude 10° 02:57:26 10° 331° (NNW) 2,044 6.1 -22.5°
Sets 02:59:42 0° 339° (NNW) 2,937 6.9 -22.9°
